Location: Bremen
(53.0793°N, 8.8017°E)
Time: 12:18:08
(UTC+01:00)

S-56A Canister/Altair - Pass Details

Date: 09 December 2021
Orbit: 634 x 2499 km, 38.9° (Epoch: 25 January)

Event Time Altitude Azimuth Distance (km) Brightness Sun altitude
Rises 01:32:07 0° 255° (WSW) 5,130 - -56.5°
Reaches altitude 10° 01:36:28 10° 245° (WSW) 3,801 - -56.2°
Maximum altitude 01:43:55 28° 193° (SSW) 2,130 - -55.5°
Drops below altitude 10° 01:49:22 10° 136° (SE) 2,714 - -55.0°
Sets 01:51:56 0° 124° (SE) 3,454 - -54.8°
